Year,Month,Day,Hour,Minute,Value (Times are PST for temperature in C)
2012,06,20,00,00,11.30
2012,06,20,00,01,11.30
2012,06,20,00,02,11.30
2012,06,20,00,03,11.30
2012,06,20,00,04,11.30
2012,06,20,00,05,11.20
2012,06,20,00,06,11.20
2012,06,20,00,07,11.20
2012,06,20,00,08,11.20
2012,06,20,00,09,11.20
2012,06,20,00,10,11.20
2012,06,20,00,11,11.20
2012,06,20,00,12,11.20
2012,06,20,00,13,11.20
2012,06,20,00,14,11.20
2012,06,20,00,15,11.20
2012,06,20,00,16,11.20
2012,06,20,00,17,11.10
2012,06,20,00,18,11.10
2012,06,20,00,19,11.10
2012,06,20,00,20,11.10
2012,06,20,00,21,11.10
2012,06,20,00,22,11.10
2012,06,20,00,23,11.10
2012,06,20,00,24,11.10
2012,06,20,00,25,11.10
2012,06,20,00,26,11.10
2012,06,20,00,27,11.10
2012,06,20,00,28,11.10
2012,06,20,00,29,11.10
2012,06,20,00,30,11.10
2012,06,20,00,31,11.10
2012,06,20,00,32,11.10
2012,06,20,00,33,11.10
2012,06,20,00,34,11.00
2012,06,20,00,35,11.00
2012,06,20,00,36,11.00
2012,06,20,00,37,11.00
2012,06,20,00,38,11.00
2012,06,20,00,39,11.00
2012,06,20,00,40,11.00
2012,06,20,00,41,11.00
2012,06,20,00,42,11.00
2012,06,20,00,43,11.00
2012,06,20,00,44,11.00
2012,06,20,00,45,11.00
2012,06,20,00,46,11.00
2012,06,20,00,47,11.00
2012,06,20,00,48,10.90
2012,06,20,00,49,10.90
2012,06,20,00,50,10.90
2012,06,20,00,51,10.90
2012,06,20,00,52,10.90
2012,06,20,00,53,10.90
2012,06,20,00,54,10.90
2012,06,20,00,55,10.90
2012,06,20,00,56,10.90
2012,06,20,00,57,10.80
2012,06,20,00,58,10.80
2012,06,20,00,59,10.80
2012,06,20,01,00,10.80
2012,06,20,01,01,10.80
2012,06,20,01,02,10.70
2012,06,20,01,03,10.70
2012,06,20,01,04,10.70
2012,06,20,01,05,10.70
2012,06,20,01,06,10.60
2012,06,20,01,07,10.60
2012,06,20,01,08,10.60
2012,06,20,01,09,10.60
2012,06,20,01,10,10.50
2012,06,20,01,11,10.50
2012,06,20,01,12,10.50
2012,06,20,01,13,10.40
2012,06,20,01,14,10.40
2012,06,20,01,15,10.40
2012,06,20,01,16,10.40
2012,06,20,01,17,10.30
2012,06,20,01,18,10.30
2012,06,20,01,19,10.30
2012,06,20,01,20,10.30
2012,06,20,01,21,10.30
2012,06,20,01,22,10.30
2012,06,20,01,23,10.30
2012,06,20,01,24,10.30
2012,06,20,01,25,10.30
2012,06,20,01,26,10.20
2012,06,20,01,27,10.20
2012,06,20,01,28,10.20
2012,06,20,01,29,10.20
2012,06,20,01,30,10.20
2012,06,20,01,31,10.20
2012,06,20,01,32,10.20
2012,06,20,01,33,10.20
2012,06,20,01,34,10.20
2012,06,20,01,35,10.20
2012,06,20,01,36,10.20
2012,06,20,01,37,10.20
2012,06,20,01,38,10.20
2012,06,20,01,39,10.20
2012,06,20,01,40,10.30
2012,06,20,01,41,10.20
2012,06,20,01,42,10.20
2012,06,20,01,43,10.20
2012,06,20,01,44,10.20
2012,06,20,01,45,10.20
2012,06,20,01,46,10.20
2012,06,20,01,47,10.20
2012,06,20,01,48,10.20
2012,06,20,01,49,10.20
2012,06,20,01,50,10.10
2012,06,20,01,51,10.10
2012,06,20,01,52,10.10
2012,06,20,01,53,10.10
2012,06,20,01,54,10.10
2012,06,20,01,55,10.10
2012,06,20,01,56,10.00
2012,06,20,01,57,10.00
2012,06,20,01,58,9.90
2012,06,20,01,59,9.90
2012,06,20,02,00,9.90
2012,06,20,02,01,9.90
2012,06,20,02,02,9.90
2012,06,20,02,03,9.80
2012,06,20,02,04,9.80
2012,06,20,02,05,9.80
2012,06,20,02,06,9.80
2012,06,20,02,07,9.80
2012,06,20,02,08,9.80
2012,06,20,02,09,9.80
2012,06,20,02,10,9.80
2012,06,20,02,11,9.80
2012,06,20,02,12,9.80
2012,06,20,02,13,9.80
2012,06,20,02,14,9.80
2012,06,20,02,15,9.80
2012,06,20,02,16,9.80
2012,06,20,02,17,9.70
2012,06,20,02,18,9.70
2012,06,20,02,19,9.70
2012,06,20,02,20,9.70
2012,06,20,02,21,9.70
2012,06,20,02,22,9.70
2012,06,20,02,23,9.60
2012,06,20,02,24,9.60
2012,06,20,02,25,9.60
2012,06,20,02,26,9.60
2012,06,20,02,27,9.50
2012,06,20,02,28,9.50
2012,06,20,02,29,9.50
2012,06,20,02,30,9.50
2012,06,20,02,31,9.50
2012,06,20,02,32,9.50
2012,06,20,02,33,9.50
2012,06,20,02,34,9.50
2012,06,20,02,35,9.50
2012,06,20,02,36,9.50
2012,06,20,02,37,9.40
2012,06,20,02,38,9.40
2012,06,20,02,39,9.40
2012,06,20,02,40,9.40
2012,06,20,02,41,9.40
2012,06,20,02,42,9.40
2012,06,20,02,43,9.40
2012,06,20,02,44,9.50
2012,06,20,02,45,9.50
2012,06,20,02,46,9.50
2012,06,20,02,47,9.50
2012,06,20,02,48,9.50
2012,06,20,02,49,9.50
2012,06,20,02,50,9.50
2012,06,20,02,51,9.50
2012,06,20,02,52,9.50
2012,06,20,02,53,9.40
2012,06,20,02,54,9.40
2012,06,20,02,55,9.40
2012,06,20,02,56,9.40
2012,06,20,02,57,9.40
2012,06,20,02,58,9.40
2012,06,20,02,59,9.30
2012,06,20,03,00,9.30
2012,06,20,03,01,9.30
2012,06,20,03,02,9.30
2012,06,20,03,03,9.30
2012,06,20,03,04,9.20
2012,06,20,03,05,9.20
2012,06,20,03,06,9.20
2012,06,20,03,07,9.20
2012,06,20,03,08,9.20
2012,06,20,03,09,9.20
2012,06,20,03,10,9.20
2012,06,20,03,11,9.20
2012,06,20,03,12,9.30
2012,06,20,03,13,9.20
2012,06,20,03,14,9.20
2012,06,20,03,15,9.20
2012,06,20,03,16,9.20
2012,06,20,03,17,9.20
2012,06,20,03,18,9.20
2012,06,20,03,19,9.20
2012,06,20,03,20,9.20
2012,06,20,03,21,9.10
2012,06,20,03,22,9.10
2012,06,20,03,23,9.10
2012,06,20,03,24,9.10
2012,06,20,03,25,9.10
2012,06,20,03,26,9.10
2012,06,20,03,27,9.00
2012,06,20,03,28,9.00
2012,06,20,03,29,9.00
2012,06,20,03,30,9.00
2012,06,20,03,31,9.00
2012,06,20,03,32,9.00
2012,06,20,03,33,9.00
2012,06,20,03,34,8.90
2012,06,20,03,35,8.90
2012,06,20,03,36,8.90
2012,06,20,03,37,8.90
2012,06,20,03,38,8.90
2012,06,20,03,39,8.90
2012,06,20,03,40,8.90
2012,06,20,03,41,8.90
2012,06,20,03,42,8.80
2012,06,20,03,43,8.90
2012,06,20,03,44,8.80
2012,06,20,03,45,8.80
2012,06,20,03,46,8.80
2012,06,20,03,47,8.80
2012,06,20,03,48,8.80
2012,06,20,03,49,8.80
2012,06,20,03,50,8.80
2012,06,20,03,51,8.70
2012,06,20,03,52,8.70
2012,06,20,03,53,8.70
2012,06,20,03,54,8.60
2012,06,20,03,55,8.60
2012,06,20,03,56,8.60
2012,06,20,03,57,8.60
2012,06,20,03,58,8.50
2012,06,20,03,59,8.50
2012,06,20,04,00,8.50
2012,06,20,04,01,8.50
2012,06,20,04,02,8.40
2012,06,20,04,03,8.40
2012,06,20,04,04,8.40
2012,06,20,04,05,8.40
2012,06,20,04,06,8.40
2012,06,20,04,07,8.40
2012,06,20,04,08,8.40
2012,06,20,04,09,8.40
2012,06,20,04,10,8.40
2012,06,20,04,11,8.40
2012,06,20,04,12,8.40
2012,06,20,04,13,8.40
2012,06,20,04,14,8.40
2012,06,20,04,15,8.40
2012,06,20,04,16,8.40
2012,06,20,04,17,8.40
2012,06,20,04,18,8.40
2012,06,20,04,19,8.40
2012,06,20,04,20,8.30
2012,06,20,04,21,8.30
2012,06,20,04,22,8.30
2012,06,20,04,23,8.30
2012,06,20,04,24,8.30
2012,06,20,04,25,8.30
2012,06,20,04,26,8.30
2012,06,20,04,27,8.30
2012,06,20,04,28,8.40
2012,06,20,04,29,8.40
2012,06,20,04,30,8.40
2012,06,20,04,31,8.40
2012,06,20,04,32,8.40
2012,06,20,04,33,8.40
2012,06,20,04,34,8.40
2012,06,20,04,35,8.40
2012,06,20,04,36,8.40
2012,06,20,04,37,8.40
2012,06,20,04,38,8.40
2012,06,20,04,39,8.40
2012,06,20,04,40,8.30
2012,06,20,04,41,8.30
2012,06,20,04,42,8.30
2012,06,20,04,43,8.30
2012,06,20,04,44,8.30
2012,06,20,04,45,8.30
2012,06,20,04,46,8.30
2012,06,20,04,47,8.30
2012,06,20,04,48,8.30
2012,06,20,04,49,8.30
2012,06,20,04,50,8.30
2012,06,20,04,51,8.20
2012,06,20,04,52,8.20
2012,06,20,04,53,8.20
2012,06,20,04,54,8.20
2012,06,20,04,55,8.20
2012,06,20,04,56,8.20
2012,06,20,04,57,8.20
2012,06,20,04,58,8.20
2012,06,20,04,59,8.20
2012,06,20,05,00,8.20
2012,06,20,05,01,8.20
2012,06,20,05,02,8.20
2012,06,20,05,03,8.20
2012,06,20,05,04,8.20
2012,06,20,05,05,8.20
2012,06,20,05,06,8.20
2012,06,20,05,07,8.20
2012,06,20,05,08,8.20
2012,06,20,05,09,8.20
2012,06,20,05,10,8.20
2012,06,20,05,11,8.20
2012,06,20,05,12,8.20
2012,06,20,05,13,8.30
2012,06,20,05,14,8.30
2012,06,20,05,15,8.20
2012,06,20,05,16,8.20
2012,06,20,05,17,8.20
2012,06,20,05,18,8.20
2012,06,20,05,19,8.20
2012,06,20,05,20,8.20
2012,06,20,05,21,8.20
2012,06,20,05,22,8.20
2012,06,20,05,23,8.20
2012,06,20,05,24,8.20
2012,06,20,05,25,8.10
2012,06,20,05,26,8.10
2012,06,20,05,27,8.10
2012,06,20,05,28,8.10
2012,06,20,05,29,8.10
2012,06,20,05,30,8.10
2012,06,20,05,31,8.10
2012,06,20,05,32,8.10
2012,06,20,05,33,8.10
2012,06,20,05,34,8.10
2012,06,20,05,35,8.10
2012,06,20,05,36,8.10
2012,06,20,05,37,8.10
2012,06,20,05,38,8.10
2012,06,20,05,39,8.10
2012,06,20,05,40,8.10
2012,06,20,05,41,8.10
2012,06,20,05,42,8.10
2012,06,20,05,43,8.10
2012,06,20,05,44,8.10
2012,06,20,05,45,8.10
2012,06,20,05,46,8.10
2012,06,20,05,47,8.10
2012,06,20,05,48,8.10
2012,06,20,05,49,8.10
2012,06,20,05,50,8.10
2012,06,20,05,51,8.20
2012,06,20,05,52,8.10
2012,06,20,05,53,8.20
2012,06,20,05,54,8.20
2012,06,20,05,55,8.20
2012,06,20,05,56,8.20
2012,06,20,05,57,8.20
2012,06,20,05,58,8.20
2012,06,20,05,59,8.20
2012,06,20,06,00,8.20
2012,06,20,06,01,8.20
2012,06,20,06,02,8.20
2012,06,20,06,03,8.20
2012,06,20,06,04,8.20
2012,06,20,06,05,8.30
2012,06,20,06,06,8.30
2012,06,20,06,07,8.30
2012,06,20,06,08,8.30
2012,06,20,06,09,8.30
2012,06,20,06,10,8.30
2012,06,20,06,11,8.30
2012,06,20,06,12,8.30
2012,06,20,06,13,8.30
2012,06,20,06,14,8.30
2012,06,20,06,15,8.40
2012,06,20,06,16,8.40
2012,06,20,06,17,8.40
2012,06,20,06,18,8.40
2012,06,20,06,19,8.40
2012,06,20,06,20,8.40
2012,06,20,06,21,8.50
2012,06,20,06,22,8.50
2012,06,20,06,23,8.50
2012,06,20,06,24,8.50
2012,06,20,06,25,8.50
2012,06,20,06,26,8.60
2012,06,20,06,27,8.60
2012,06,20,06,28,8.60
2012,06,20,06,29,8.70
2012,06,20,06,30,8.70
2012,06,20,06,31,8.70
2012,06,20,06,32,8.70
2012,06,20,06,33,8.70
2012,06,20,06,34,8.70
2012,06,20,06,35,8.80
2012,06,20,06,36,8.80
2012,06,20,06,37,8.80
2012,06,20,06,38,8.80
2012,06,20,06,39,8.90
2012,06,20,06,40,8.90
2012,06,20,06,41,8.90
2012,06,20,06,42,8.90
2012,06,20,06,43,9.00
2012,06,20,06,44,9.00
2012,06,20,06,45,9.10
2012,06,20,06,46,9.10
2012,06,20,06,47,9.10
2012,06,20,06,48,9.20
2012,06,20,06,49,9.20
2012,06,20,06,50,9.20
2012,06,20,06,51,9.30
2012,06,20,06,52,9.30
2012,06,20,06,53,9.30
2012,06,20,06,54,9.40
2012,06,20,06,55,9.50
2012,06,20,06,56,9.60
2012,06,20,06,57,9.60
2012,06,20,06,58,9.70
2012,06,20,06,59,9.80
2012,06,20,07,00,9.80
2012,06,20,07,01,9.90
2012,06,20,07,02,10.00
2012,06,20,07,03,10.00
2012,06,20,07,04,10.10
2012,06,20,07,05,10.20
2012,06,20,07,06,10.20
2012,06,20,07,07,10.30
2012,06,20,07,08,10.30
2012,06,20,07,09,10.40
2012,06,20,07,10,10.50
2012,06,20,07,11,10.60
2012,06,20,07,12,10.60
2012,06,20,07,13,10.70
2012,06,20,07,14,10.80
2012,06,20,07,15,10.90
2012,06,20,07,16,10.90
2012,06,20,07,17,11.00
2012,06,20,07,18,11.10
2012,06,20,07,19,11.10
2012,06,20,07,20,11.20
2012,06,20,07,21,11.20
2012,06,20,07,22,11.30
2012,06,20,07,23,11.30
2012,06,20,07,24,11.40
2012,06,20,07,25,11.40
2012,06,20,07,26,11.50
2012,06,20,07,27,11.50
2012,06,20,07,28,11.50
2012,06,20,07,29,11.60
2012,06,20,07,30,11.70
2012,06,20,07,31,11.70
2012,06,20,07,32,11.80
2012,06,20,07,33,11.80
2012,06,20,07,34,11.90
2012,06,20,07,35,12.00
2012,06,20,07,36,12.00
2012,06,20,07,37,12.10
2012,06,20,07,38,12.20
2012,06,20,07,39,12.20
2012,06,20,07,40,12.30
2012,06,20,07,41,12.40
2012,06,20,07,42,12.50
2012,06,20,07,43,12.50
2012,06,20,07,44,12.60
2012,06,20,07,45,12.70
2012,06,20,07,46,12.80
2012,06,20,07,47,12.80
2012,06,20,07,48,12.90
2012,06,20,07,49,13.00
2012,06,20,07,50,13.00
2012,06,20,07,51,13.10
2012,06,20,07,52,13.20
2012,06,20,07,53,13.20
2012,06,20,07,54,13.20
2012,06,20,07,55,13.30
2012,06,20,07,56,13.40
2012,06,20,07,57,13.40
2012,06,20,07,58,13.50
2012,06,20,07,59,13.50
2012,06,20,08,00,13.50
2012,06,20,08,01,13.60
2012,06,20,08,02,13.60
2012,06,20,08,03,13.70
2012,06,20,08,04,13.70
2012,06,20,08,05,13.80
2012,06,20,08,06,13.80
2012,06,20,08,07,13.90
2012,06,20,08,08,14.00
2012,06,20,08,09,14.10
2012,06,20,08,10,14.20
2012,06,20,08,11,14.20
2012,06,20,08,12,14.30
2012,06,20,08,13,14.40
2012,06,20,08,14,14.40
2012,06,20,08,15,14.50
2012,06,20,08,16,14.60
2012,06,20,08,17,14.60
2012,06,20,08,18,14.70
2012,06,20,08,19,14.70
2012,06,20,08,20,14.80
2012,06,20,08,21,14.80
2012,06,20,08,22,14.90
2012,06,20,08,23,14.90
2012,06,20,08,24,14.90
2012,06,20,08,25,15.00
2012,06,20,08,26,15.00
2012,06,20,08,27,15.10
2012,06,20,08,28,15.20
2012,06,20,08,29,15.20
2012,06,20,08,30,15.30
2012,06,20,08,31,15.40
2012,06,20,08,32,15.40
2012,06,20,08,33,15.50
2012,06,20,08,34,15.50
2012,06,20,08,35,15.60
2012,06,20,08,36,15.60
2012,06,20,08,37,15.70
2012,06,20,08,38,15.70
2012,06,20,08,39,15.80
2012,06,20,08,40,15.80
2012,06,20,08,41,15.80
2012,06,20,08,42,15.80
2012,06,20,08,43,15.80
2012,06,20,08,44,15.80
2012,06,20,08,45,15.80
2012,06,20,08,46,15.80
2012,06,20,08,47,15.80
2012,06,20,08,48,15.80
2012,06,20,08,49,15.80
2012,06,20,08,50,15.70
2012,06,20,08,51,15.70
2012,06,20,08,52,15.70
2012,06,20,08,53,15.70
2012,06,20,08,54,15.70
2012,06,20,08,55,15.70
2012,06,20,08,56,15.80
2012,06,20,08,57,15.80
2012,06,20,08,58,15.80
2012,06,20,08,59,15.90
2012,06,20,09,00,16.00
2012,06,20,09,01,16.10
2012,06,20,09,02,16.10
2012,06,20,09,03,16.20
2012,06,20,09,04,16.30
2012,06,20,09,05,16.40
2012,06,20,09,06,16.50
2012,06,20,09,07,16.60
2012,06,20,09,08,16.70
2012,06,20,09,09,16.80
2012,06,20,09,10,16.90
2012,06,20,09,11,16.90
2012,06,20,09,12,16.90
2012,06,20,09,13,17.00
2012,06,20,09,14,16.90
2012,06,20,09,15,16.90
2012,06,20,09,16,17.00
2012,06,20,09,17,16.90
2012,06,20,09,18,16.90
2012,06,20,09,19,16.80
2012,06,20,09,20,16.80
2012,06,20,09,21,16.70
2012,06,20,09,22,16.70
2012,06,20,09,23,16.70
2012,06,20,09,24,16.70
2012,06,20,09,25,16.70
2012,06,20,09,26,16.70
2012,06,20,09,27,16.70
2012,06,20,09,28,16.80
2012,06,20,09,29,16.80
2012,06,20,09,30,16.90
2012,06,20,09,31,16.90
2012,06,20,09,32,16.90
2012,06,20,09,33,16.90
2012,06,20,09,34,16.90
2012,06,20,09,35,16.90
2012,06,20,09,36,16.90
2012,06,20,09,37,17.00
2012,06,20,09,38,17.00
2012,06,20,09,39,17.10
2012,06,20,09,40,17.20
2012,06,20,09,41,17.20
2012,06,20,09,42,17.20
2012,06,20,09,43,17.10
2012,06,20,09,44,17.10
2012,06,20,09,45,17.10
2012,06,20,09,46,17.20
2012,06,20,09,47,17.20
2012,06,20,09,48,17.20
2012,06,20,09,49,17.20
2012,06,20,09,50,17.30
2012,06,20,09,51,17.30
2012,06,20,09,52,17.40
2012,06,20,09,53,17.50
2012,06,20,09,54,17.60
2012,06,20,09,55,17.70
2012,06,20,09,56,17.70
2012,06,20,09,57,17.70
2012,06,20,09,58,17.50
2012,06,20,09,59,17.40
2012,06,20,10,00,17.20
2012,06,20,10,01,17.10
2012,06,20,10,02,17.00
2012,06,20,10,03,16.90
2012,06,20,10,04,16.80
2012,06,20,10,05,16.80
2012,06,20,10,06,16.80
2012,06,20,10,07,16.90
2012,06,20,10,08,16.90
2012,06,20,10,09,17.00
2012,06,20,10,10,17.10
2012,06,20,10,11,17.10
2012,06,20,10,12,17.20
2012,06,20,10,13,17.20
2012,06,20,10,14,17.20
2012,06,20,10,15,17.30
2012,06,20,10,16,17.40
2012,06,20,10,17,17.40
2012,06,20,10,18,17.40
2012,06,20,10,19,17.40
2012,06,20,10,20,17.40
2012,06,20,10,21,17.50
2012,06,20,10,22,17.50
2012,06,20,10,23,17.50
2012,06,20,10,24,17.60
2012,06,20,10,25,17.60
2012,06,20,10,26,17.60
2012,06,20,10,27,17.50
2012,06,20,10,28,17.50
2012,06,20,10,29,17.40
2012,06,20,10,30,17.40
2012,06,20,10,31,17.40
2012,06,20,10,32,17.40
2012,06,20,10,33,17.40
2012,06,20,10,34,17.50
2012,06,20,10,35,17.60
2012,06,20,10,36,17.60
2012,06,20,10,37,17.60
2012,06,20,10,38,17.60
2012,06,20,10,39,17.70
2012,06,20,10,40,17.70
2012,06,20,10,41,17.80
2012,06,20,10,42,17.80
2012,06,20,10,43,17.90
2012,06,20,10,44,18.00
2012,06,20,10,45,18.20
2012,06,20,10,46,18.30
2012,06,20,10,47,18.50
2012,06,20,10,48,18.60
2012,06,20,10,49,18.60
2012,06,20,10,50,18.70
2012,06,20,10,51,18.70
2012,06,20,10,52,18.60
2012,06,20,10,53,18.40
2012,06,20,10,54,18.30
2012,06,20,10,55,18.20
2012,06,20,10,56,18.00
2012,06,20,10,57,17.90
2012,06,20,10,58,17.80
2012,06,20,10,59,17.70
2012,06,20,11,00,17.70
2012,06,20,11,01,17.60
2012,06,20,11,02,17.60
2012,06,20,11,03,17.70
2012,06,20,11,04,17.80
2012,06,20,11,05,17.90
2012,06,20,11,06,18.00
2012,06,20,11,07,18.10
2012,06,20,11,08,18.10
2012,06,20,11,09,18.20
2012,06,20,11,10,18.20
2012,06,20,11,11,18.30
2012,06,20,11,12,18.50
2012,06,20,11,13,18.60
2012,06,20,11,14,18.80
2012,06,20,11,15,18.90
2012,06,20,11,16,18.90
2012,06,20,11,17,18.90
2012,06,20,11,18,18.90
2012,06,20,11,19,18.90
2012,06,20,11,20,18.90
2012,06,20,11,21,18.90
2012,06,20,11,22,18.90
2012,06,20,11,23,18.90
2012,06,20,11,24,18.90
2012,06,20,11,25,19.00
2012,06,20,11,26,19.10
2012,06,20,11,27,19.20
2012,06,20,11,28,19.30
2012,06,20,11,29,19.40
2012,06,20,11,30,19.50
2012,06,20,11,31,19.60
2012,06,20,11,32,19.60
2012,06,20,11,33,19.60
2012,06,20,11,34,19.50
2012,06,20,11,35,19.40
2012,06,20,11,36,19.30
2012,06,20,11,37,19.20
2012,06,20,11,38,19.20
2012,06,20,11,39,19.20
2012,06,20,11,40,19.20
2012,06,20,11,41,19.20
2012,06,20,11,42,19.20
2012,06,20,11,43,19.20
2012,06,20,11,44,19.20
2012,06,20,11,45,19.30
2012,06,20,11,46,19.20
2012,06,20,11,47,19.10
2012,06,20,11,48,19.10
2012,06,20,11,49,19.20
2012,06,20,11,50,19.30
2012,06,20,11,51,19.30
2012,06,20,11,52,19.30
2012,06,20,11,53,19.40
2012,06,20,11,54,19.50
2012,06,20,11,55,19.60
2012,06,20,11,56,19.60
2012,06,20,11,57,19.70
2012,06,20,11,58,19.70
2012,06,20,11,59,19.70
2012,06,20,12,00,19.70
2012,06,20,12,01,19.60
2012,06,20,12,02,19.60
2012,06,20,12,03,19.60
2012,06,20,12,04,19.60
2012,06,20,12,05,19.60
2012,06,20,12,06,19.60
2012,06,20,12,07,19.60
2012,06,20,12,08,19.60
2012,06,20,12,09,19.50
2012,06,20,12,10,19.50
2012,06,20,12,11,19.50
2012,06,20,12,12,19.60
2012,06,20,12,13,19.60
2012,06,20,12,14,19.70
2012,06,20,12,15,19.80
2012,06,20,12,16,19.90
2012,06,20,12,17,19.90
2012,06,20,12,18,20.00
2012,06,20,12,19,20.00
2012,06,20,12,20,20.10
2012,06,20,12,21,20.20
2012,06,20,12,22,20.30
2012,06,20,12,23,20.40
2012,06,20,12,24,20.50
2012,06,20,12,25,20.70
2012,06,20,12,26,20.70
2012,06,20,12,27,20.70
2012,06,20,12,28,20.70
2012,06,20,12,29,20.60
2012,06,20,12,30,20.40
2012,06,20,12,31,20.30
2012,06,20,12,32,20.10
2012,06,20,12,33,19.90
2012,06,20,12,34,19.70
2012,06,20,12,35,19.60
2012,06,20,12,36,19.50
2012,06,20,12,37,19.40
2012,06,20,12,38,19.40
2012,06,20,12,39,19.30
2012,06,20,12,40,19.40
2012,06,20,12,41,19.40
2012,06,20,12,42,19.30
2012,06,20,12,43,19.30
2012,06,20,12,44,19.30
2012,06,20,12,45,19.40
2012,06,20,12,46,19.50
2012,06,20,12,47,19.60
2012,06,20,12,48,19.70
2012,06,20,12,49,19.90
2012,06,20,12,50,20.00
2012,06,20,12,51,20.20
2012,06,20,12,52,20.50
2012,06,20,12,53,20.60
2012,06,20,12,54,20.80
2012,06,20,12,55,21.00
2012,06,20,12,56,21.20
2012,06,20,12,57,21.30
2012,06,20,12,58,21.50
2012,06,20,12,59,21.50
2012,06,20,13,00,21.50
2012,06,20,13,01,21.40
2012,06,20,13,02,21.40
2012,06,20,13,03,21.40
2012,06,20,13,04,21.30
2012,06,20,13,05,21.30
2012,06,20,13,06,21.30
2012,06,20,13,07,21.40
2012,06,20,13,08,21.40
2012,06,20,13,09,21.50
2012,06,20,13,10,21.40
2012,06,20,13,11,21.30
2012,06,20,13,12,21.20
2012,06,20,13,13,21.10
2012,06,20,13,14,21.00
2012,06,20,13,15,20.90
2012,06,20,13,16,20.80
2012,06,20,13,17,20.70
2012,06,20,13,18,20.70
2012,06,20,13,19,20.70
2012,06,20,13,20,20.70
2012,06,20,13,21,20.70
2012,06,20,13,22,20.70
2012,06,20,13,23,20.70
2012,06,20,13,24,20.70
2012,06,20,13,25,20.70
2012,06,20,13,26,20.70
2012,06,20,13,27,20.80
2012,06,20,13,28,20.90
2012,06,20,13,29,20.90
2012,06,20,13,30,21.00
2012,06,20,13,31,21.10
2012,06,20,13,32,21.20
2012,06,20,13,33,21.30
2012,06,20,13,34,21.30
2012,06,20,13,35,21.30
2012,06,20,13,36,21.20
2012,06,20,13,37,21.10
2012,06,20,13,38,21.00
2012,06,20,13,39,20.90
2012,06,20,13,40,20.80
2012,06,20,13,41,20.70
2012,06,20,13,42,20.70
2012,06,20,13,43,20.70
2012,06,20,13,44,20.70
2012,06,20,13,45,20.80
2012,06,20,13,46,20.90
2012,06,20,13,47,21.00
2012,06,20,13,48,21.00
2012,06,20,13,49,21.10
2012,06,20,13,50,21.10
2012,06,20,13,51,21.10
2012,06,20,13,52,21.20
2012,06,20,13,53,21.20
2012,06,20,13,54,21.30
2012,06,20,13,55,21.40
2012,06,20,13,56,21.40
2012,06,20,13,57,21.50
2012,06,20,13,58,21.50
2012,06,20,13,59,21.60
2012,06,20,14,00,21.60
2012,06,20,14,01,21.60
2012,06,20,14,02,21.60
2012,06,20,14,03,21.60
2012,06,20,14,04,21.60
2012,06,20,14,05,21.60
2012,06,20,14,06,21.50
2012,06,20,14,07,21.50
2012,06,20,14,08,21.50
2012,06,20,14,09,21.40
2012,06,20,14,10,21.40
2012,06,20,14,11,21.40
2012,06,20,14,12,21.40
2012,06,20,14,13,21.40
2012,06,20,14,14,21.40
2012,06,20,14,15,21.50
2012,06,20,14,16,21.50
2012,06,20,14,17,21.50
2012,06,20,14,18,21.50
2012,06,20,14,19,21.50
2012,06,20,14,20,21.50
2012,06,20,14,21,21.60
2012,06,20,14,22,21.60
2012,06,20,14,23,21.70
2012,06,20,14,24,21.80
2012,06,20,14,25,21.90
2012,06,20,14,26,21.90
2012,06,20,14,27,21.90
2012,06,20,14,28,21.90
2012,06,20,14,29,21.80
2012,06,20,14,30,21.70
2012,06,20,14,31,21.70
2012,06,20,14,32,21.70
2012,06,20,14,33,21.70
2012,06,20,14,34,21.60
2012,06,20,14,35,21.50
2012,06,20,14,36,21.50
2012,06,20,14,37,21.40
2012,06,20,14,38,21.40
2012,06,20,14,39,21.30
2012,06,20,14,40,21.20
2012,06,20,14,41,21.20
2012,06,20,14,42,21.20
2012,06,20,14,43,21.10
2012,06,20,14,44,21.10
2012,06,20,14,45,21.00
2012,06,20,14,46,21.00
2012,06,20,14,47,20.90
2012,06,20,14,48,20.90
2012,06,20,14,49,20.80
2012,06,20,14,50,20.70
2012,06,20,14,51,20.70
2012,06,20,14,52,20.70
2012,06,20,14,53,20.70
2012,06,20,14,54,20.70
2012,06,20,14,55,20.70
2012,06,20,14,56,20.80
2012,06,20,14,57,20.90
2012,06,20,14,58,20.90
2012,06,20,14,59,21.00
2012,06,20,15,00,21.20
2012,06,20,15,01,21.30
2012,06,20,15,02,21.30
2012,06,20,15,03,21.40
2012,06,20,15,04,21.40
2012,06,20,15,05,21.40
2012,06,20,15,06,21.30
2012,06,20,15,07,21.20
2012,06,20,15,08,21.20
2012,06,20,15,09,21.10
2012,06,20,15,10,21.00
2012,06,20,15,11,21.00
2012,06,20,15,12,20.90
2012,06,20,15,13,20.80
2012,06,20,15,14,20.80
2012,06,20,15,15,20.80
2012,06,20,15,16,20.80
2012,06,20,15,17,20.80
2012,06,20,15,18,20.90
2012,06,20,15,19,20.90
2012,06,20,15,20,21.00
2012,06,20,15,21,21.10
2012,06,20,15,22,21.10
2012,06,20,15,23,21.20
2012,06,20,15,24,21.20
2012,06,20,15,25,21.20
2012,06,20,15,26,21.30
2012,06,20,15,27,21.30
2012,06,20,15,28,21.30
2012,06,20,15,29,21.40
2012,06,20,15,30,21.50
2012,06,20,15,31,21.60
2012,06,20,15,32,21.80
2012,06,20,15,33,21.90
2012,06,20,15,34,22.00
2012,06,20,15,35,22.10
2012,06,20,15,36,22.20
2012,06,20,15,37,22.20
2012,06,20,15,38,22.30
2012,06,20,15,39,22.30
2012,06,20,15,40,22.30
2012,06,20,15,41,22.30
2012,06,20,15,42,22.20
2012,06,20,15,43,22.20
2012,06,20,15,44,22.10
2012,06,20,15,45,22.10
2012,06,20,15,46,22.10
2012,06,20,15,47,22.00
2012,06,20,15,48,22.00
2012,06,20,15,49,22.00
2012,06,20,15,50,22.00
2012,06,20,15,51,22.00
2012,06,20,15,52,21.90
2012,06,20,15,53,21.80
2012,06,20,15,54,21.70
2012,06,20,15,55,21.60
2012,06,20,15,56,21.50
2012,06,20,15,57,21.30
2012,06,20,15,58,21.10
2012,06,20,15,59,20.80
2012,06,20,16,00,20.50
2012,06,20,16,01,20.00
2012,06,20,16,02,19.70
2012,06,20,16,03,19.40
2012,06,20,16,04,19.20
2012,06,20,16,05,18.90
2012,06,20,16,06,18.80
2012,06,20,16,07,18.70
2012,06,20,16,08,18.60
2012,06,20,16,09,18.50
2012,06,20,16,10,18.40
2012,06,20,16,11,18.40
2012,06,20,16,12,18.30
2012,06,20,16,13,18.30
2012,06,20,16,14,18.20
2012,06,20,16,15,18.20
2012,06,20,16,16,18.20
2012,06,20,16,17,18.20
2012,06,20,16,18,18.30
2012,06,20,16,19,18.30
2012,06,20,16,20,18.30
2012,06,20,16,21,18.30
2012,06,20,16,22,18.30
2012,06,20,16,23,18.20
2012,06,20,16,24,18.20
2012,06,20,16,25,18.20
2012,06,20,16,26,18.20
2012,06,20,16,27,18.20
2012,06,20,16,28,18.20
2012,06,20,16,29,18.20
2012,06,20,16,30,18.20
2012,06,20,16,31,18.30
2012,06,20,16,32,18.30
2012,06,20,16,33,18.30
2012,06,20,16,34,18.40
2012,06,20,16,35,18.40
2012,06,20,16,36,18.40
2012,06,20,16,37,18.50
2012,06,20,16,38,18.50
2012,06,20,16,39,18.50
2012,06,20,16,40,18.60
2012,06,20,16,41,18.60
2012,06,20,16,42,18.60
2012,06,20,16,43,18.60
2012,06,20,16,44,18.60
2012,06,20,16,45,18.60
2012,06,20,16,46,18.60
2012,06,20,16,47,18.60
2012,06,20,16,48,18.60
2012,06,20,16,49,18.60
2012,06,20,16,50,18.60
2012,06,20,16,51,18.60
2012,06,20,16,52,18.60
2012,06,20,16,53,18.60
2012,06,20,16,54,18.60
2012,06,20,16,55,18.60
2012,06,20,16,56,18.60
2012,06,20,16,57,18.60
2012,06,20,16,58,18.60
2012,06,20,16,59,18.60
2012,06,20,17,00,18.60
2012,06,20,17,01,18.60
2012,06,20,17,02,18.60
2012,06,20,17,03,18.60
2012,06,20,17,04,18.60
2012,06,20,17,05,18.60
2012,06,20,17,06,18.60
2012,06,20,17,07,18.60
2012,06,20,17,08,18.60
2012,06,20,17,09,18.60
2012,06,20,17,10,18.60
2012,06,20,17,11,18.60
2012,06,20,17,12,18.60
2012,06,20,17,13,18.60
2012,06,20,17,14,18.60
2012,06,20,17,15,18.60
2012,06,20,17,16,18.60
2012,06,20,17,17,18.70
2012,06,20,17,18,18.70
2012,06,20,17,19,18.60
2012,06,20,17,20,18.60
2012,06,20,17,21,18.60
2012,06,20,17,22,18.70
2012,06,20,17,23,18.70
2012,06,20,17,24,18.70
2012,06,20,17,25,18.80
2012,06,20,17,26,18.80
2012,06,20,17,27,18.80
2012,06,20,17,28,18.80
2012,06,20,17,29,18.80
2012,06,20,17,30,18.80
2012,06,20,17,31,18.90
2012,06,20,17,32,18.90